Dylan Vandenstorme

Team Flanders-Baloise, Belgia, 22 år

Pro Cycling Manager

Informasjon

Dylan Vandenstorme er en 22 år gammel profesjonell syklist fra Belgia (født 19.april 2002), som sykler for Team Flanders-Baloise (UCI ProTeam). Han har vunnet 1 UCI ritt, og er nummer 1168 på UCI rankingen.

2024 2023 2022 2021 2020 2019

Team Flanders-Baloise (ProTeam) UCI Ranking: 1168 (45pts)
Alle Flatt Kupert Fjell Tempo Brosten UCI?
Dato Pos GC Ritt UCI
30.06 53 SD WORX BW Classic | 1.2 2024-06-30Vis mer
07.04 93 Paris-Roubaix | 1.UWT 2024-04-07Vis mer
31.03 DNF Ronde van Vlaanderen | 1.UWT 2024-03-31Vis mer
27.03 101 Dwars door Vlaanderen | 1.UWT 2024-03-27Vis mer
24.03 83 Gent - Wevelgem | 1.UWT 2024-03-24Vis mer
22.03 103 E3 Saxo Classic | 1.UWT 2024-03-22Vis mer
20.03 45 Classic Brugge-De Panne | 1.UWT 2024-03-205Vis mer
14.03 59 GP de Denain | 1.Pro 2024-03-14Vis mer
10.04 56 Brabantse Pijl | 1.Pro 2024-04-10Vis mer
14.04 DNF Amstel Gold Race | 1.UWT 2024-04-14Vis mer
21.04 DNF Liège-Bastogne-Liège | 1.UWT 2024-04-21Vis mer
23.06 41 Belgium RR | CN 2024-06-23Vis mer
18.06 DNF Ruddervoorde Koerse | KP 2024-06-18Vis mer
09.06 ZLM Tour | 2.1 2024-06-09 Vis mer
09.06 24 ZLM Tour | Sammenlagt 2024-06-093
02.06 54 Brussels Classic | 1.Pro 2024-06-02Vis mer
26.05 Tour of Norway | 2.Pro 2024-05-26 Vis mer
26.05 36 Tour of Norway | Sammenlagt 2024-05-263
19.05 43 Antwerp Port Epic | 1.1 2024-05-19Vis mer
05.05 36 Elfstedenronde | 1.1 2024-05-05Vis mer
28.04 82 Famenne Ardenne Classic | 1.1 2024-04-28Vis mer
13.03 64 Nokere Koerse | 1.Pro 2024-03-13Vis mer
02.03 69 GP Criquielion | 1.1 2024-03-02Vis mer
27.02 108 Le Samyn | 1.1 2024-02-27Vis mer
18.02 Vuelta a Andalucía | 2.Pro 2024-02-18 Vis mer
18.02 73 Vuelta a Andalucía | Sammenlagt 2024-02-18
25.02 DNF Kuurne-Brussel-Kuurne | 1.Pro 2024-02-25Vis mer
24.02 111 Omloop Het Nieuwsblad | 1.UWT 2024-02-24Vis mer
27.01 106 Trofeo Andratx | 1.1 2024-01-27Vis mer
26.01 67 Trofeo Serra Tramuntana | 1.1 2024-01-26Vis mer
25.01 39 Trofeo Ses Salines - Felanitx | 1.1 2024-01-25Vis mer
24.01 98 Trofeo Calvia | 1.1 2024-01-24Vis mer
09.06 4 ZLM Tour | Ungdom 2024-06-09
26.05 9 Tour of Norway | Ungdom 2024-05-26
09.06 3524 ZLM Tour | 5.etappe 2024-06-09
08.06 4029 ZLM Tour | 4.etappe 2024-06-08
07.06 3131 ZLM Tour | 3.etappe 2024-06-07
06.06 3845 ZLM Tour | 2.etappe 2024-06-06
05.06 4848 ZLM Tour | 1.etappe 2024-06-05
26.05 1636 Tour of Norway | 4.etappe 2024-05-26
25.05 1842 Tour of Norway | 3.etappe 2024-05-25
24.05 4743 Tour of Norway | 2.etappe 2024-05-24
23.05 4040 Tour of Norway | 1.etappe 2024-05-23
16.02 7373 Vuelta a Andalucía | 3.etappe 2024-02-16